Deering, AK

4:10 PM AKDT on October 19, 2017 (GMT -0800)
Deering (New)

Weather History for PADE - September, 2012

Change the Weather History Date:

Thursday, September 13, 2012

  Actual Average (PAOT) Record (PAOT)
Temperature  
Mean Temperature 35 °F -  
Max Temperature 42 °F 49 °F 65 °F (1965)
Min Temperature 28 °F 39 °F 28 °F (1996)
Degree Days  
Heating Degree Days 30    
Moisture  
Dew Point 30 °F    
Average Humidity 81    
Maximum Humidity 93    
Minimum Humidity 60    
Precipitation  
Precipitation 0.00 in - - ()
Sea Level Pressure  
Sea Level Pressure 29.89 in    
Wind  
Wind Speed 8 mph (SW)    
Max Wind Speed 10 mph    
Max Gust Speed -    
Visibility 10 miles    
Events      
Averages and records for this station are not official NWS values.
T = Trace of Precipitation, MM = Missing Value Source: NWS Daily Summary

Daily Weather History Graph

Daily Weather History Graph

Search for Another Location

Airport or City:

Trip Planner

Search our weather history database for the weather conditions in past years. The results will help you decide how hot, cold, wet, or windy it might be!

Date:

Astronomy

Sep. 13, 2012 Rise Set
Actual Time 8:07 AM AKDT 9:24 PM AKDT
Civil Twilight 7:13 AM AKDT 10:17 PM AKDT
Nautical Twilight 6:04 AM AKDT 11:25 PM AKDT
Astronomical Twilight 4:29 AM AKDT 12:57 AM AKDT
Moon 4:56 AM AKDT (9/13) 8:18 PM AKDT (9/13)
Length of Visible Light 15h 03m
Length of Day
13h 17m
Waning Crescent, 6% of the Moon is Illuminated
Sep 13
Waning Crescent
Sep 15
New
Sep 22
First Quarter
Sep 29
Full
Oct 7
Last Quarter

Hourly Weather History & Observations

Time (AKDT) Temp. Windchill Dew Point Humidity Pressure Visibility Wind Dir Wind Speed Gust Speed Precip Events Conditions
12:53 AM 33.1 °F 26.1 °F 30.9 °F 92% 29.92 in 10.0 mi SSW 8.1 mph - N/A   Scattered Clouds
1:53 AM 32.0 °F 24.2 °F 30.0 °F 92% 29.92 in 10.0 mi SSW 9.2 mph - N/A   Clear
2:53 AM 32.0 °F 25.6 °F 30.0 °F 92% 29.93 in 10.0 mi SSW 6.9 mph - N/A   Clear
3:53 AM 30.0 °F 21.7 °F 28.0 °F 92% 29.93 in 10.0 mi SSW 9.2 mph - N/A   Clear
4:53 AM 30.0 °F 21.1 °F 28.0 °F 92% 29.92 in 10.0 mi SSW 10.4 mph - N/A   Clear
5:53 AM 30.0 °F 21.7 °F 28.0 °F 92% 29.92 in 10.0 mi SSW 9.2 mph - N/A   Partly Cloudy
6:39 AM 32.0 °F 24.8 °F 30.2 °F 93% 29.92 in 10.0 mi SSW 8.1 mph - N/A   Mostly Cloudy
6:53 AM 30.0 °F 22.4 °F 28.0 °F 92% 29.92 in 10.0 mi SSW 8.1 mph - N/A   Scattered Clouds
8:50 AM 30.2 °F 21.9 °F 28.4 °F 93% 29.92 in 10.0 mi SSW 9.2 mph - N/A   Mostly Cloudy
8:53 AM 32.0 °F 24.2 °F 30.0 °F 92% 29.92 in 10.0 mi SSW 9.2 mph - N/A   Mostly Cloudy
9:53 AM 35.1 °F 29.3 °F 33.1 °F 92% 29.92 in 10.0 mi SSW 6.9 mph - N/A   Overcast
10:53 AM 37.9 °F 32.1 °F 34.0 °F 86% 29.92 in 10.0 mi SW 8.1 mph - N/A   Overcast
11:53 AM 39.0 °F 32.8 °F 33.1 °F 79% 29.92 in 10.0 mi WSW 9.2 mph - N/A   Overcast
12:53 PM 39.9 °F 33.4 °F 32.0 °F 73% 29.91 in 10.0 mi SW 10.4 mph - N/A   Overcast
1:53 PM 39.9 °F 33.4 °F 30.9 °F 70% 29.91 in 10.0 mi WSW 10.4 mph - N/A   Overcast
2:53 PM 41.0 °F 36.4 °F 30.9 °F 67% 29.90 in 10.0 mi West 6.9 mph - N/A   Overcast
3:53 PM 41.0 °F 35.2 °F 32.0 °F 70% 29.89 in 10.0 mi WNW 9.2 mph - N/A   Overcast
4:50 PM 41.0 °F 35.8 °F 30.2 °F 65% 29.87 in 10.0 mi West 8.1 mph - N/A   Overcast
4:53 PM 42.1 °F 37.1 °F 30.9 °F 65% 29.88 in 10.0 mi West 8.1 mph - N/A   Overcast
5:53 PM 42.1 °F 37.1 °F 30.9 °F 65% 29.86 in 10.0 mi NW 8.1 mph - N/A   Mostly Cloudy
6:53 PM 42.1 °F 36.1 °F 28.9 °F 60% 29.85 in 10.0 mi West 10.4 mph - N/A   Clear
7:53 PM 39.9 °F 35.8 °F 28.9 °F 65% 29.85 in 10.0 mi NW 5.8 mph - N/A   Clear
8:53 PM 37.9 °F 35.5 °F 28.9 °F 70% 29.84 in 10.0 mi NW 3.5 mph - N/A   Clear
9:53 PM 34.0 °F - 28.0 °F 79% 29.84 in 10.0 mi Calm Calm - N/A   Clear
10:40 PM 28.4 °F 19.7 °F 24.8 °F 86% 29.84 in 10.0 mi SSW 9.2 mph - N/A   Mostly Cloudy
10:53 PM 28.0 °F 20.0 °F 26.1 °F 92% 29.84 in 10.0 mi SSW 8.1 mph - N/A   Mostly Cloudy
11:53 PM 28.9 °F 21.9 °F 26.1 °F 89% 29.84 in 10.0 mi SW 6.9 mph - N/A   Overcast